Regional Weather Roundup
Issued by NWS

Home | Current Version | Previous Version | Text Only | Print | Product List | Glossary Off
Versions: 1 2 3 4 5 6 7 8 9 10 11 12 13 14 15 16 17 18 19 20 21 22 23 24 25 26 27 28 29 30 31 32 33 34 35 36 37 38 39 40 41 42 43 44 45 46 47 48 49 50

000
ASUS43 KLMK 230710
RWRKY
KENTUCKY REGIONAL WEATHER ROUNDUP
NATIONAL WEATHER SERVICE LOUISVILLE KY
200 AM EST TUE JAN 23 2018

NOTE "FAIR" INDICATES FEW OR NO CLOUDS BELOW 12,000 FEET
WITH NO SIGNIFICANT WEATHER AND/OR OBSTRUCTIONS TO VISIBILITY.

KYZ001>023-026-027-061>063-070>075-230800-
WESTERN AND SOUTH CENTRAL KENTUCKY

CITY           SKY/WX    TMP DP  RH WIND       PRES   REMARKS
PADUCAH        CLOUDY    44  28  53 W20G29    29.75R
HENDERSON      CLOUDY    41  34  76 SW15      29.71R
OWENSBORO      LGT RAIN  45  33  63 SW23      29.70R
HOPKINSVILLE   CLOUDY    46  29  50 SW25G32   29.76R
BOWLING GREEN  MOCLDY    48  32  53 SW17G29   29.76R
GLASGOW        MOCLDY    45  32  60 W9        29.75R
$$

KYZ024-025-028>034-038-045-046-053-230800-
NORTH CENTRAL KENTUCKY

CITY           SKY/WX    TMP DP  RH WIND       PRES   REMARKS
LOUISVILLE/SDF MOCLDY    48  31  51 SW20G29   29.67S
LOUISVILLE/LOU MOCLDY    48  30  49 SW22G35   29.68S
FORT KNOX      CLOUDY    45  32  59 S18G28    29.67S
$$

KYZ035>037-039>044-047>052-055>060-089>105-230800-
NORTHEAST KENTUCKY

CITY           SKY/WX    TMP DP  RH WIND       PRES   REMARKS
LEXINGTON      FAIR      47  33  58 SW10      29.69R
COVINGTON      FAIR      45  33  63 SW10      29.63S
FRANKFORT      FAIR      47  31  53 SW13G23   29.67R
$$

KYZ054-064>069-076>088-106>120-230800-
SOUTHEAST KENTUCKY

CITY           SKY/WX    TMP DP  RH WIND       PRES   REMARKS
JACKSON        LGT RAIN  54  46  74 W12G29    29.68R
LONDON         LGT RAIN  52  45  77 SW14G26   29.71S
SOMERSET       FAIR      50  32  50 W14G24    29.75R
MIDDLESBORO    MOCLDY    55  48  76 SW3       29.72S
MONTICELLO     FAIR      50  32  50 W18       29.76R
$$





USA.gov is the U.S. government's official web portal to all federal, state and local government web resources and services.